Location: Fort Worth, Tx
(32.7431°N, 97.3695°W)
Time: 16:16:13
(UTC-04:00)

Transit 4A - Visible Passes

Search period start: 18 April 2026 00:00
Search period end: 28 April 2026 00:00
Orbit: 862 x 979 km, 66.8° (Epoch: 18 April)

Date Brightness Start Highest point End Pass type
(mag) Time Alt. Az. Time Alt. Az. Time Alt. Az.
18 Apr 10.1 01:29:04 10° NNW 01:31:10 21° N 01:31:10 21° N visible
18 Apr 10.2 23:54:29 10° NNE 23:56:12 12° NE 23:56:12 12° NE visible
19 Apr 10.1 01:37:39 10° NNW 01:39:40 21° NNW 01:39:40 21° NNW visible
20 Apr 10.0 00:01:44 10° N 00:04:43 17° NE 00:04:43 17° NE visible
20 Apr 10.1 01:46:24 10° NNW 01:48:11 20° NNW 01:48:11 20° NNW visible
21 Apr 9.7 00:09:43 10° N 00:13:16 23° NNE 00:13:16 23° NNE visible
21 Apr 10.3 01:55:18 10° NW 01:56:44 17° NW 01:56:44 17° NW visible
22 Apr 9.4 00:17:59 10° N 00:21:50 30° NNE 00:21:50 30° NNE visible
22 Apr 10.4 02:04:27 10° NW 02:05:19 14° NW 02:05:19 14° NW visible
23 Apr 9.1 00:26:27 10° NNW 00:30:27 37° N 00:30:27 37° N visible
23 Apr 9.9 22:51:24 10° NNE 22:54:13 13° NE 22:55:37 12° ENE visible
24 Apr 9.0 00:35:04 10° NNW 00:39:05 41° NNW 00:39:05 41° NNW visible
24 Apr 9.6 22:58:57 10° N 23:03:21 19° NE 23:04:18 18° ENE visible
25 Apr 9.1 00:43:51 10° NNW 00:47:46 39° NW 00:47:46 39° NW visible
25 Apr 9.1 23:07:01 10° N 23:12:24 27° NE 23:13:01 27° ENE visible
26 Apr 9.4 00:52:49 10° NW 00:56:30 32° WNW 00:56:30 32° WNW visible
26 Apr 8.6 23:15:21 10° N 23:21:20 40° ENE 23:21:46 39° ENE visible
27 Apr 9.8 01:02:02 10° NW 01:05:15 24° WNW 01:05:15 24° WNW visible
27 Apr 8.0 23:23:51 10° NNW 23:30:11 59° ENE 23:30:34 58° ENE visible
